• In Russia
  • List of Countries
  • For 7 days
  • Water Temperature
  • Satellite Maps
  • Weather Map
  • Weather Widgets
  • user-avatar
    Login

    Hourly Weather Naftalan

    Today, 23 January, Monday

    Time Temperature Precipitation Wind Pressure Humidity
    00:00 +1°C° 0 mm 5 mps 776 mmHg 73%
    01:00 +1°C° 0 mm 4 mps 776 mmHg 75%
    02:00 0°C° 0 mm 4 mps 776 mmHg 76%
    03:00 +1°C° 0 mm 3 mps 776 mmHg 75%
    04:00 +1°C° 0 mm 3 mps 776 mmHg 77%
    05:00 +1°C° 0 mm 3 mps 776 mmHg 79%
    06:00 0°C° 0 mm 3 mps 776 mmHg 80%
    07:00 +2°C° 0 mm 3 mps 776 mmHg 76%
    08:00 +3°C° 0 mm 3 mps 776 mmHg 71%
    09:00 +4°C° 0 mm 3 mps 776 mmHg 68%
    10:00 +5°C° 0 mm 3 mps 776 mmHg 64%
    11:00 +7°C° 0 mm 3 mps 776 mmHg 59%
    12:00 +8°C° 0 mm 3 mps 776 mmHg 54%
    13:00 +8°C° 0 mm 2 mps 775 mmHg 53%
    14:00 +8°C° 0 mm 2 mps 775 mmHg 51%
    15:00 +8°C° 0 mm 2 mps 775 mmHg 48%
    16:00 +7°C° 0 mm 2 mps 775 mmHg 56%
    17:00 +6°C° 0 mm 2 mps 775 mmHg 63%
    18:00 +5°C° 0 mm 2 mps 776 mmHg 71%
    19:00 +4°C° 0 mm 2 mps 776 mmHg 73%
    20:00 +4°C° 0 mm 2 mps 776 mmHg 75%
    21:00 +3°C° 0 mm 3 mps 776 mmHg 76%
    22:00 +2°C° 0 mm 3 mps 776 mmHg 76%
    23:00 +2°C° 0 mm 3 mps 776 mmHg 75%

    Tomorrow, 24 January, Tuesday

    Time Temperature Precipitation Wind Pressure Humidity
    00:00 +2°C° 0 mm 3 mps 776 mmHg 75%
    01:00 +3°C° 0 mm 2 mps 776 mmHg 76%
    02:00 +2°C° 0 mm 2 mps 776 mmHg 78%
    03:00 +2°C° 0 mm 2 mps 776 mmHg 79%
    04:00 +2°C° 0 mm 2 mps 776 mmHg 82%
    05:00 +1°C° 0 mm 2 mps 776 mmHg 84%
    06:00 +2°C° 0 mm 1 mps 776 mmHg 87%
    07:00 +3°C° 0 mm 2 mps 776 mmHg 80%
    08:00 +4°C° 0 mm 2 mps 776 mmHg 74%
    09:00 +6°C° 0 mm 2 mps 776 mmHg 68%
    10:00 +7°C° 0 mm 3 mps 776 mmHg 61%
    11:00 +7°C° 0 mm 4 mps 776 mmHg 54%
    12:00 +10°C° 0 mm 4 mps 775 mmHg 48%
    13:00 +9°C° 0 mm 5 mps 775 mmHg 48%
    14:00 +9°C° 0 mm 5 mps 774 mmHg 47%
    15:00 +9°C° 0 mm 5 mps 774 mmHg 47%
    16:00 +8°C° 0 mm 5 mps 773 mmHg 57%
    17:00 +6°C° 0 mm 5 mps 773 mmHg 66%
    18:00 +5°C° 0 mm 5 mps 773 mmHg 75%
    19:00 +3°C° 0 mm 5 mps 773 mmHg 78%
    20:00 +3°C° 0 mm 5 mps 772 mmHg 81%
    21:00 +2°C° 0 mm 5 mps 772 mmHg 84%
    22:00 +2°C° 0 mm 5 mps 771 mmHg 84%
    23:00 +2°C° 0 mm 5 mps 771 mmHg 84%

    Day after tomorrow, 25 January, Wednesday

    Time Temperature Precipitation Wind Pressure Humidity
    00:00 +2°C° 0 mm 5 mps 770 mmHg 85%
    01:00 +1°C° 0 mm 4 mps 769 mmHg 83%
    02:00 +1°C° 0 mm 4 mps 769 mmHg 82%
    03:00 +1°C° 0 mm 4 mps 768 mmHg 81%
    04:00 +1°C° 0 mm 4 mps 768 mmHg 78%
    05:00 0°C° 0 mm 4 mps 767 mmHg 75%
    06:00 0°C° 0 mm 4 mps 767 mmHg 71%
    07:00 +1°C° 0 mm 4 mps 766 mmHg 66%
    08:00 +3°C° 0 mm 3 mps 766 mmHg 61%
    09:00 +4°C° 0 mm 3 mps 766 mmHg 56%
    10:00 +7°C° 0 mm 3 mps 765 mmHg 51%
    11:00 +7°C° 0 mm 4 mps 765 mmHg 46%
    12:00 +10°C° 0 mm 4 mps 764 mmHg 41%
    13:00 +10°C° 0 mm 3 mps 763 mmHg 39%
    14:00 +11°C° 0 mm 3 mps 763 mmHg 37%
    15:00 +12°C° 0 mm 2 mps 762 mmHg 35%
    16:00 +9°C° 0 mm 2 mps 762 mmHg 39%
    17:00 +9°C° 0 mm 1 mps 762 mmHg 43%
    18:00 +8°C° 0 mm 1 mps 762 mmHg 47%
    19:00 +7°C° 0 mm 1 mps 762 mmHg 48%
    20:00 +6°C° 0 mm 1 mps 762 mmHg 48%
    21:00 +6°C° 0 mm 1 mps 761 mmHg 49%
    22:00 +5°C° 0 mm 2 mps 761 mmHg 48%
    23:00 +4°C° 0 mm 2 mps 761 mmHg 47%

    26 January, Thursday

    Time Temperature Precipitation Wind Pressure Humidity
    00:00 +3°C° 0 mm 3 mps 761 mmHg 47%
    01:00 +3°C° 0 mm 3 mps 761 mmHg 44%
    02:00 +3°C° 0 mm 3 mps 761 mmHg 42%
    03:00 +3°C° 0 mm 3 mps 761 mmHg 39%
    04:00 +3°C° 0 mm 3 mps 761 mmHg 40%
    05:00 +2°C° 0 mm 3 mps 761 mmHg 40%
    06:00 +2°C° 0 mm 3 mps 761 mmHg 40%
    07:00 +3°C° 0 mm 3 mps 762 mmHg 41%
    08:00 +5°C° 0 mm 4 mps 762 mmHg 43%
    09:00 +6°C° 0 mm 4 mps 762 mmHg 44%
    10:00 +7°C° 0 mm 4 mps 762 mmHg 44%
    11:00 +8°C° 0 mm 4 mps 762 mmHg 44%
    12:00 +10°C° 0 mm 4 mps 762 mmHg 44%
    13:00 +10°C° 0 mm 4 mps 762 mmHg 45%
    14:00 +10°C° 0 mm 4 mps 762 mmHg 46%
    15:00 +11°C° 0 mm 4 mps 762 mmHg 46%
    16:00 +8°C° 0 mm 5 mps 763 mmHg 56%
    17:00 +7°C° 0 mm 5 mps 763 mmHg 66%
    18:00 +4°C° 0 mm 6 mps 764 mmHg 76%
    19:00 +4°C° 0 mm 6 mps 764 mmHg 78%
    20:00 +3°C° 0 mm 6 mps 765 mmHg 80%
    21:00 +3°C° 0 mm 7 mps 765 mmHg 82%
    22:00 +3°C° 0 mm 7 mps 765 mmHg 83%
    23:00 +2°C° 0 mm 7 mps 766 mmHg 84%

    27 January, Friday

    Time Temperature Precipitation Wind Pressure Humidity
    00:00 +2°C° 0 mm 7 mps 766 mmHg 85%
    01:00 +2°C° 0 mm 6 mps 766 mmHg 85%
    02:00 +2°C° 0 mm 6 mps 766 mmHg 86%
    03:00 +2°C° 0 mm 6 mps 766 mmHg 87%
    04:00 +2°C° 0 mm 6 mps 767 mmHg 86%
    05:00 +2°C° 0 mm 6 mps 767 mmHg 86%
    06:00 +2°C° 0 mm 6 mps 767 mmHg 86%
    07:00 +2°C° 0 mm 6 mps 767 mmHg 83%
    08:00 +3°C° 0 mm 5 mps 768 mmHg 80%
    09:00 +5°C° 0 mm 5 mps 768 mmHg 77%
    10:00 +4°C° 0 mm 6 mps 768 mmHg 73%
    11:00 +5°C° 0 mm 6 mps 767 mmHg 69%
    12:00 +5°C° 0 mm 6 mps 767 mmHg 65%
    13:00 +5°C° 0 mm 6 mps 767 mmHg 66%
    14:00 +5°C° 0 mm 6 mps 766 mmHg 67%
    15:00 +5°C° 0 mm 6 mps 766 mmHg 68%
    16:00 +5°C° 0.1 mm 6 mps 766 mmHg 71%
    17:00 +4°C° 0.1 mm 6 mps 767 mmHg 73%
    18:00 +4°C° 0.1 mm 6 mps 767 mmHg 76%
    19:00 +3°C° 0.1 mm 6 mps 767 mmHg 78%
    20:00 +3°C° 0.1 mm 6 mps 767 mmHg 79%
    21:00 +3°C° 0.1 mm 6 mps 767 mmHg 80%
    22:00 +3°C° 0.2 mm 6 mps 767 mmHg 81%
    23:00 +3°C° 0.2 mm 7 mps 767 mmHg 81%

    28 January, Saturday

    Time Temperature Precipitation Wind Pressure Humidity
    00:00 +3°C° 0.2 mm 7 mps 767 mmHg 81%
    01:00 +2°C° 0.1 mm 7 mps 767 mmHg 82%
    02:00 +2°C° 0.1 mm 7 mps 767 mmHg 82%
    03:00 +2°C° 0.1 mm 7 mps 767 mmHg 83%
    04:00 +2°C° 0.1 mm 7 mps 767 mmHg 83%
    05:00 +2°C° 0.1 mm 7 mps 767 mmHg 83%
    06:00 +2°C° 0.1 mm 7 mps 766 mmHg 83%
    07:00 +3°C° 0.2 mm 7 mps 766 mmHg 83%
    08:00 +2°C° 0.2 mm 8 mps 766 mmHg 82%
    09:00 +4°C° 0.2 mm 8 mps 766 mmHg 82%
    10:00 +4°C° 0.1 mm 8 mps 766 mmHg 80%
    11:00 +4°C° 0.1 mm 7 mps 765 mmHg 79%
    12:00 +5°C° 0.1 mm 7 mps 765 mmHg 78%
    13:00 +5°C° 0.1 mm 7 mps 764 mmHg 77%
    14:00 +5°C° 0.1 mm 7 mps 764 mmHg 77%
    15:00 +5°C° 0.1 mm 7 mps 764 mmHg 77%
    16:00 +5°C° 0 mm 7 mps 764 mmHg 79%
    17:00 +5°C° 0 mm 7 mps 764 mmHg 81%
    18:00 +4°C° 0 mm 6 mps 764 mmHg 83%
    19:00 +4°C° 0.1 mm 7 mps 764 mmHg 84%
    20:00 +4°C° 0.1 mm 7 mps 764 mmHg 85%
    21:00 +5°C° 0.1 mm 7 mps 764 mmHg 86%
    22:00 +5°C° 0.2 mm 7 mps 764 mmHg 87%
    23:00 +5°C° 0.2 mm 7 mps 763 mmHg 88%
    Show more